TimeEST,TemperatureF,Dew PointF,Humidity,Sea Level PressureIn,VisibilityMPH,Wind Direction,Wind SpeedMPH,Gust SpeedMPH,PrecipitationIn,Events,Conditions,WindDirDegrees,DateUTC
12:25 AM,62.6,59.0,88,29.81,10.0,South,18.4,-,N/A,,Overcast,190,2013-01-13 05:25:00
12:53 AM,62.1,60.1,93,29.79,10.0,South,17.3,25.3,N/A,,Overcast,190,2013-01-13 05:53:00
1:53 AM,63.0,59.0,87,29.78,10.0,SSW,19.6,31.1,N/A,,Overcast,200,2013-01-13 06:53:00
2:31 AM,62.6,59.0,88,29.76,10.0,South,18.4,-,N/A,,Overcast,190,2013-01-13 07:31:00
2:53 AM,62.1,57.9,86,29.75,10.0,South,17.3,-,N/A,,Overcast,190,2013-01-13 07:53:00
3:53 AM,63.0,57.0,81,29.74,10.0,South,21.9,-,N/A,,Overcast,190,2013-01-13 08:53:00
4:53 AM,61.0,57.0,87,29.73,10.0,SSW,23.0,31.1,0.04,Rain,Light Rain,200,2013-01-13 09:53:00
5:53 AM,59.0,55.9,90,29.79,10.0,West,16.1,33.4,0.01,,Overcast,270,2013-01-13 10:53:00
6:53 AM,55.9,54.0,93,29.82,10.0,SSW,5.8,-,0.00,,Mostly Cloudy,210,2013-01-13 11:53:00
7:53 AM,55.9,54.0,93,29.84,10.0,South,10.4,-,0.01,Rain,Light Rain,190,2013-01-13 12:53:00
8:53 AM,57.0,55.0,93,29.85,10.0,South,16.1,-,0.02,Rain,Light Rain,170,2013-01-13 13:53:00
9:07 AM,57.2,55.4,94,29.85,10.0,South,13.8,-,0.00,,Overcast,190,2013-01-13 14:07:00
9:17 AM,57.2,55.4,94,29.86,10.0,SSW,12.7,-,0.00,,Overcast,210,2013-01-13 14:17:00
9:53 AM,57.9,55.9,93,29.89,10.0,SW,16.1,-,0.00,,Overcast,220,2013-01-13 14:53:00
10:00 AM,57.2,55.4,94,29.89,10.0,SSW,13.8,-,N/A,,Overcast,210,2013-01-13 15:00:00
10:43 AM,57.2,55.4,94,29.89,10.0,SSW,13.8,-,0.00,Rain,Light Rain,210,2013-01-13 15:43:00
10:53 AM,57.9,55.9,93,29.88,10.0,South,15.0,-,0.01,Rain,Light Rain,190,2013-01-13 15:53:00
11:53 AM,59.0,55.9,90,29.85,10.0,SW,15.0,-,0.00,,Partly Cloudy,220,2013-01-13 16:53:00
12:12 PM,59.0,55.4,88,29.87,10.0,West,11.5,23.0,N/A,,Mostly Cloudy,260,2013-01-13 17:12:00
12:24 PM,51.8,48.2,88,29.87,6.0,WNW,12.7,21.9,N/A,,Overcast,290,2013-01-13 17:24:00
12:33 PM,50.0,48.2,94,29.87,4.0,NW,11.5,-,N/A,,Overcast,310,2013-01-13 17:33:00
12:53 PM,50.0,48.9,96,29.85,3.0,NW,9.2,-,N/A,,Overcast,310,2013-01-13 17:53:00
1:16 PM,51.8,50.0,94,29.86,5.0,WNW,5.8,-,N/A,,Scattered Clouds,290,2013-01-13 18:16:00
1:39 PM,53.6,51.8,94,29.87,6.0,WNW,8.1,-,N/A,,Mostly Cloudy,290,2013-01-13 18:39:00
1:53 PM,52.0,50.0,93,29.87,5.0,West,6.9,-,N/A,,Overcast,280,2013-01-13 18:53:00
2:46 PM,53.6,51.8,94,29.85,5.0,Calm,Calm,-,N/A,,Overcast,0,2013-01-13 19:46:00
2:53 PM,53.1,51.1,93,29.85,5.0,Calm,Calm,-,N/A,,Overcast,0,2013-01-13 19:53:00
3:07 PM,53.6,51.8,94,29.84,5.0,Calm,Calm,-,N/A,,Overcast,0,2013-01-13 20:07:00
3:24 PM,53.6,51.8,94,29.85,6.0,Calm,Calm,-,N/A,,Overcast,0,2013-01-13 20:24:00
3:53 PM,54.0,51.1,90,29.86,5.0,Calm,Calm,-,N/A,,Overcast,0,2013-01-13 20:53:00
4:44 PM,51.8,51.8,100,29.87,2.5,NNW,3.5,-,0.02,Rain,Light Rain,330,2013-01-13 21:44:00
4:53 PM,53.1,52.0,96,29.87,2.5,Calm,Calm,-,0.03,Rain,Light Rain,0,2013-01-13 21:53:00
5:38 PM,51.8,50.0,94,29.89,3.0,NW,17.3,27.6,0.08,Rain,Rain,320,2013-01-13 22:38:00
5:53 PM,45.0,43.0,93,29.91,4.0,NNW,19.6,25.3,0.16,Rain,Heavy Rain,330,2013-01-13 22:53:00
6:09 PM,42.8,41.0,93,29.91,4.0,NW,16.1,24.2,0.06,Rain,Rain,320,2013-01-13 23:09:00
6:53 PM,42.1,39.9,92,29.91,10.0,North,8.1,-,0.09,Rain,Light Rain,350,2013-01-13 23:53:00
7:53 PM,41.0,39.9,96,29.91,3.0,NW,11.5,-,0.04,Rain,Rain,320,2013-01-14 00:53:00
8:06 PM,41.0,39.2,93,29.91,2.5,NNW,10.4,-,0.03,Rain,Light Rain,330,2013-01-14 01:06:00
8:10 PM,41.0,39.2,93,29.92,3.0,NW,12.7,-,0.04,Rain,Light Rain,310,2013-01-14 01:10:00
8:23 PM,39.2,39.2,100,29.92,3.0,NW,13.8,20.7,0.06,Rain,Rain,320,2013-01-14 01:23:00
8:53 PM,39.9,39.0,97,29.94,6.0,NW,10.4,-,0.08,Rain,Light Rain,310,2013-01-14 01:53:00
9:11 PM,39.2,37.4,93,29.95,2.5,WNW,16.1,-,0.03,Rain,Light Rain,300,2013-01-14 02:11:00
9:19 PM,39.2,37.4,93,29.93,3.0,NW,10.4,20.7,0.04,Rain,Light Rain,320,2013-01-14 02:19:00
9:53 PM,39.0,37.0,93,29.99,10.0,NW,16.1,24.2,0.04,,Overcast,310,2013-01-14 02:53:00
10:53 PM,37.0,35.1,93,30.04,5.0,WNW,15.0,-,0.01,,Overcast,300,2013-01-14 03:53:00
11:29 PM,35.6,33.8,93,30.05,10.0,NW,13.8,-,N/A,,Overcast,310,2013-01-14 04:29:00
11:53 PM,36.0,34.0,93,30.06,10.0,NW,10.4,-,N/A,,Overcast,310,2013-01-14 04:53:00